Location: Gloden
(48.4833°N, 15.3167°E)
Time: 10:31:26
(UTC+00:00)

Cosmos 2263 Rocket - Pass Details

Date: 15 December 2019
Orbit: 824 x 848 km, 71.0° (Epoch: 24 January)

Event Time Altitude Azimuth Distance (km) Brightness Sun altitude
Exits shadow 05:23:56 17° 296° (WNW) 1,985 3.5 -12.4°
Maximum altitude 05:25:41 19° 320° (NW) 1,859 3.5 -12.2°
Drops below altitude 10° 05:29:39 10° 6° (N) 2,436 4.4 -11.6°
Sets 05:32:49 0° 24° (NNE) 3,373 5.4 -11.1°
